Overview Statistics Trail Chart Weather Telemetry Raw packets
 

This is the latest recevied weather packets stored in our database for station/object KE5QKR. If no packets are shown the sender has not sent any weather packets the latest 10 day(s).

<< 102 103 104 105 106 107 108 >>
Time Temp. Humidity Pressure Rain* Wind** Luminosity Snow
1777131004 19.44° C 99% 1010.2 hPa 0 mm - 357 W/m² -
1777130700 19.44° C 99% 1010.5 hPa 0 mm - 272 W/m² -
1777130396 19.44° C 99% 1010.6 hPa 0 mm - 174 W/m² -
1777130092 19.44° C 99% 1010.6 hPa 0 mm - 226 W/m² -
1777129788 18.89° C 99% 1010.3 hPa 0 mm - 211 W/m² -
1777129483 18.89° C 99% 1010.3 hPa 0 mm - 196 W/m² -
1777129182 18.89° C 99% 1010.4 hPa 0 mm - 178 W/m² -
1777128878 18.33° C 99% 1010.3 hPa 0 mm - 159 W/m² -
1777128575 18.33° C 99% 1010.4 hPa 0 mm - 105 W/m² -
1777128272 17.78° C 99% 1010.4 hPa 0 mm - 105 W/m² -
1777127970 17.78° C 99% 1010 hPa 0 mm - 90 W/m² -
1777127667 17.78° C 99% 1009.5 hPa 0 mm - 74 W/m² -
1777127364 17.22° C 99% 1009.4 hPa 0 mm - 58 W/m² -
1777127060 17.22° C 99% 1009.2 hPa 0 mm - 45 W/m² -
1777126756 17.22° C 99% 1009 hPa 0 mm - 39 W/m² -
1777126453 17.22° C 99% 1009 hPa 0 mm - 32 W/m² -
1777126148 17.22° C 99% 1009.2 hPa 0 mm - 27 W/m² -
1777125844 17.22° C 99% 1009.2 hPa 0 mm - 22 W/m² -
1777125541 17.22° C 99% 1009.2 hPa 0 mm - 17 W/m² -
1777125236 17.22° C 99% 1008.9 hPa 0 mm - 14 W/m² -
1777124931 17.22° C 99% 1008.9 hPa 0 mm - 12 W/m² -
1777124629 17.22° C 99% 1009.2 hPa 0 mm - 11 W/m² -
1777124324 17.22° C 99% 1009.2 hPa 0 mm - 10 W/m² -
1777124021 17.22° C 99% 1008.9 hPa 0 mm - 9 W/m² -
1777123717 17.22° C 99% 1008.8 hPa 0 mm - 8 W/m² -

* Rain latest hour (hover to see other rain measurements)
** Current wind speed in m/s (hover to see current wind gust speed)